{"data":{"norad_id":63891,"intl_designator":"2025-095B","name":"STARLINK-34123","alt_names":[],"object_type":"PAYLOAD","status":"ACTIVE","operator":null,"country":"US","launch_date":"2025-05-10","launch_site_code":"AFETR","launch_vehicle":null,"mission":null,"orbit_class":"UNKNOWN","rcs_meters":null,"size_class":null,"mass_kg":null,"dimensions":null,"purposes":["comms"],"wikipedia_slug":null,"has_3d_model":false,"image_url":null,"decayed_at":null,"tle_current":{"epoch":"2026-05-25T04:35:14.301600Z","epoch_age_seconds":51892,"freshness":"FRESH","line1":"1 63891U 25095B   26145.19113775  .00014813  00000+0  54663-3 0  9993","line2":"2 63891  42.9989 104.5343 0001659 232.8483 127.2217 15.27585323 59480","mean_motion":15.27585323,"eccentricity":0.0001659,"inclination_deg":42.9989,"raan_deg":104.5343,"arg_perigee_deg":232.8483,"mean_anomaly_deg":127.2217,"bstar":0.00054663,"rev_number":5948,"period_min":94.266420233209,"perigee_km":481.89488897993,"apogee_km":484.17142523806,"semimajor_km":6861.170157109,"source":"CELESTRAK","updated_at":"2026-05-25T13:38:20.174978Z"}}}